2023-030A (55836 NORAD) Tracking and Keplerian Element Data

This shows tracking and keplerian element data for the satellite.

Feedback or suggestion? Click here.




ElementValue
Catalog55836
Name2023-030A
Epoch Orbit807
Epoch Day126.52996552
Epoch Year2023
RAAN134.0788
Inclination98.9971
Eccentricity9.28E-05
Argument of Perigee117.0948
Mean Anonmoly243.0304
Mean Motion14.00773116
Decay Rate2.19E-06
L11 55836U 23030A 23126.52996552 .00000219 00000+0 17642-3 0 9996
L22 55836 98.9971 134.0788 0000928 117.0948 243.0304 14.00773116 8073



Live tracking and technical data element details for 2023-030A (NORAD 55836). 2023-030A can be tracked NOW for your location showing map with azimuth and elevation plus other details from your city location.







IsCatalogInMostPopularTable: catalog: 55836, numindb: 5
Update: records affected: 1



GetName: 55836 2023-030A

Hit Count: updated at: Tue, 06 Jun 2023 02:28:04 GMT